GFSSE_sfc_thetae_078.txt.gz
Theta_e
339 345 349 350 350 350 349 348 348 348 349 349 348 347 347 347 346 346 347 347 348 349 348 346 346 343 341 339 338 341 341 339 338 339 339 337 337 338 337 339 336 331 335
341 347 348 349 350 349 349 348 348 348 349 348 347 346 345 345 345 345 346 347 348 349 346 345 344 341 340 338 339 340 340 339 338 338 338 338 336 335 335 336 337 332 335
342 348 349 348 349 349 349 349 349 349 349 347 346 345 344 344 344 344 346 347 348 348 346 344 343 340 338 337 339 338 338 338 339 339 336 328 329 334 334 332 334 333 333
342 347 349 346 348 348 348 348 348 349 347 345 344 343 343 343 343 344 345 346 347 347 344 344 341 339 338 338 337 335 335 335 335 336 328 325 326 332 331 330 330 331 330
340 345 348 345 346 347 347 347 347 346 344 343 342 343 343 344 344 345 344 344 347 347 344 343 341 339 338 337 335 335 335 336 336 330 326 326 325 329 329 328 328 328 329
339 345 343 343 345 345 346 346 346 344 342 341 342 342 343 344 344 345 345 345 345 347 344 342 340 337 336 334 334 333 334 334 334 325 326 329 326 329 328 327 327 326 327
339 344 345 341 343 344 346 345 343 341 341 341 341 341 342 343 344 344 343 344 345 345 343 340 337 336 335 333 333 332 333 331 325 325 324 326 325 329 328 327 325 325 325
341 344 344 343 342 343 343 342 340 340 340 340 339 340 341 340 340 341 341 343 344 342 341 338 336 335 334 333 330 329 329 331 324 326 325 326 331 329 327 326 324 323 323
331 341 342 342 341 339 338 337 337 338 338 338 338 338 337 336 337 338 339 341 341 340 338 336 335 333 332 329 327 326 327 330 322 321 324 325 332 329 327 325 324 322 321
325 327 333 338 338 337 336 335 335 336 336 336 335 334 333 334 335 335 336 337 338 337 335 333 332 330 328 325 324 323 326 326 318 320 321 323 331 329 326 324 323 321 320
325 328 332 330 331 334 334 335 335 335 334 333 332 331 328 327 329 331 333 334 335 334 333 331 329 327 324 322 322 323 324 315 314 314 314 324 329 329 326 323 322 320 319
326 327 328 327 328 331 332 331 332 333 330 330 327 327 325 328 330 330 330 331 332 331 330 329 328 325 324 317 316 322 314 313 312 309 313 321 321 324 326 323 321 319 318
323 323 323 325 325 325 326 326 326 326 324 325 326 327 327 329 329 328 325 324 323 326 321 323 322 320 322 320 316 312 311 310 310 311 318 322 320 320 326 322 320 318 317
322 321 322 322 321 319 320 320 322 325 326 322 327 329 329 328 327 325 325 324 323 322 321 321 322 321 317 314 312 311 309 308 307 311 317 322 323 324 326 322 319 318 316
320 321 321 322 321 320 319 321 325 325 324 325 328 332 331 328 327 327 327 325 323 324 323 321 320 318 313 311 310 309 308 308 308 312 311 320 321 322 323 321 319 317 315
319 319 321 320 321 318 319 322 324 324 325 327 330 331 331 329 330 329 328 326 323 324 323 322 319 314 312 310 308 308 307 307 306 307 310 313 319 320 319 317 316 315 313
316 317 317 318 319 318 317 316 318 324 326 326 329 329 330 331 330 329 326 324 322 325 322 318 313 311 309 309 308 307 308 306 306 305 306 310 313 317 318 317 316 315 314
317 317 317 319 317 317 316 315 317 318 324 326 327 329 328 329 330 328 326 325 325 320 317 314 311 309 309 309 307 306 306 306 305 304 304 304 305 308 314 314 312 309 307
317 317 317 318 317 317 316 315 315 319 325 326 327 327 328 331 331 329 327 325 322 320 317 314 311 310 308 307 308 307 307 305 305 306 304 303 303 303 303 311 310 309 306
317 317 317 318 318 317 316 316 320 324 325 327 328 329 330 331 331 328 327 322 321 317 315 312 311 310 310 309 311 309 307 307 305 303 303 305 303 304 302 303 302 304 309
318 318 318 318 319 318 321 320 321 321 325 327 328 328 331 330 330 328 325 322 321 316 313 314 312 309 308 309 306 307 308 307 304 303 304 303 303 303 303 301 301 300 302
318 319 321 322 323 323 324 325 323 324 326 328 329 330 330 329 329 327 324 321 320 316 314 313 311 310 310 309 305 303 300 302 303 305 303 303 302 302 302 303 302 301 300
320 321 322 324 325 326 327 327 324 326 327 326 326 328 328 326 325 324 325 321 318 315 313 313 311 310 308 309 307 302 297 295 296 301 302 301 300 300 301 302 302 302 301
320 322 322 323 326 329 329 324 321 320 321 325 326 327 327 325 324 325 324 321 317 316 313 313 314 311 308 305 308 309 304 300 294 292 298 298 301 301 300 300 300 301 301
321 321 322 324 327 329 330 329 323 324 324 326 326 325 321 321 321 322 321 320 318 317 316 313 312 309 308 305 301 301 301 299 299 294 290 293 297 298 297 296 297 298 299
324 323 324 326 327 329 330 329 328 325 324 324 323 321 320 320 319 319 320 319 317 316 315 312 311 309 304 303 303 302 298 296 294 293 291 292 292 293 295 295 295 296 298

GFSSE_sfc_thetae_081.txt.gz
Theta_e
337 347 349 350 350 349 348 348 348 348 348 348 348 348 348 348 348 349 348 348 348 348 344 342 343 341 340 337 340 341 340 340 339 340 338 336 337 337 337 335 336 330 335
336 348 347 349 349 349 348 348 348 348 348 348 348 347 347 347 347 348 348 348 347 347 343 340 341 340 338 337 340 340 340 339 338 337 337 336 335 334 334 334 335 330 334
330 332 347 348 349 349 349 349 349 349 348 348 347 346 346 346 347 348 348 347 347 347 342 340 337 338 339 339 340 340 340 339 337 335 333 325 326 332 332 331 331 331 332
335 332 342 346 348 348 348 348 348 348 347 346 345 345 345 346 347 348 347 346 346 346 341 339 336 337 336 338 337 337 337 336 336 332 325 324 325 330 330 329 330 330 331
330 333 330 344 345 347 347 347 347 346 344 344 343 344 344 345 347 348 347 345 345 345 340 338 336 336 336 335 335 335 335 335 333 328 323 322 322 327 329 328 327 328 329
328 330 331 341 343 346 347 347 345 344 342 342 342 344 345 345 346 346 346 345 345 345 339 337 335 334 334 334 334 333 332 334 330 325 325 326 323 329 328 327 326 326 326
332 335 341 341 343 346 347 346 343 342 341 341 342 342 344 345 345 344 344 344 344 342 338 335 334 335 333 332 332 331 331 330 324 324 323 322 323 328 327 326 325 325 325
326 338 343 342 343 344 344 342 340 340 340 340 341 342 344 344 343 344 343 343 342 340 338 336 335 334 332 330 330 329 329 329 326 324 324 323 329 327 327 325 323 324 324
327 326 328 342 342 340 338 338 338 338 338 339 339 339 339 339 340 342 343 342 341 338 336 335 334 332 329 328 327 326 326 327 320 323 325 323 330 327 326 324 322 322 323
327 326 326 332 338 337 336 336 336 336 336 336 336 335 335 336 337 339 339 339 338 336 335 333 332 329 327 325 324 324 324 324 316 317 319 326 329 327 325 324 321 321 322
325 324 326 329 334 335 335 336 335 335 334 333 333 332 329 330 331 333 336 336 336 334 333 332 330 327 325 322 321 324 319 312 310 311 314 328 329 327 325 323 320 320 321
322 323 328 331 331 333 334 333 332 331 328 327 326 324 328 328 329 332 333 333 333 332 331 330 328 326 321 314 313 316 308 308 306 309 313 324 325 327 324 322 320 319 319
325 326 327 329 331 330 331 330 327 327 326 324 323 325 328 328 325 325 325 325 325 327 322 324 321 317 316 313 308 306 306 308 307 310 318 322 322 327 324 322 319 318 317
321 322 323 323 322 320 321 322 322 323 322 322 323 326 326 325 322 321 320 319 319 318 317 316 317 314 310 309 308 306 305 305 307 310 317 322 325 327 325 321 320 318 317
318 319 319 319 318 317 317 317 317 317 318 322 326 328 326 324 323 322 320 320 319 318 318 316 316 313 308 307 306 305 305 304 309 309 311 321 323 326 323 321 320 318 316
318 318 318 318 318 318 318 319 322 322 323 325 327 327 328 327 324 324 321 321 320 320 319 317 316 309 307 306 304 305 304 303 305 307 309 313 320 322 321 318 318 316 314
318 318 318 317 318 318 317 319 322 324 325 324 325 327 326 327 326 325 322 319 319 319 319 317 312 308 306 306 304 304 304 303 302 303 308 310 313 318 319 318 317 316 314
316 316 317 319 317 316 315 316 319 320 320 322 323 325 324 328 327 323 322 319 320 317 313 309 307 305 303 303 302 301 303 302 302 301 304 307 306 309 315 317 315 312 310
316 315 315 316 315 316 315 315 317 318 319 321 321 324 322 323 327 324 322 321 318 315 312 310 308 306 305 304 304 303 302 302 301 303 301 301 301 305 304 314 313 312 308
316 316 316 315 315 315 314 313 314 314 319 322 321 324 323 324 326 326 324 319 319 314 311 309 306 307 305 305 308 305 302 302 302 300 300 302 300 301 301 301 301 302 310
316 315 315 314 314 313 311 309 311 312 319 320 322 325 325 325 326 325 321 319 316 312 309 309 306 305 304 305 303 303 304 304 301 300 301 300 301 301 300 299 298 298 303
313 314 315 314 314 313 312 311 314 317 319 322 324 324 325 325 325 324 319 318 317 312 309 308 307 306 306 305 302 300 297 299 301 302 301 301 299 300 300 300 299 299 297
312 313 314 315 315 315 316 317 319 318 320 321 322 323 325 325 324 324 321 318 316 312 308 307 307 307 304 305 304 301 296 293 294 298 300 299 299 298 298 300 301 300 299
313 315 314 315 315 317 320 320 319 317 318 320 320 321 323 322 322 322 322 319 316 312 310 309 310 307 305 303 303 305 301 298 293 291 295 295 297 298 297 297 298 299 299
314 315 316 319 320 321 322 322 321 316 320 320 321 321 320 320 320 321 320 317 315 311 310 311 309 307 305 301 299 299 300 298 296 292 290 292 295 296 296 296 296 295 298
316 317 318 319 321 323 324 324 321 318 320 320 321 320 318 316 316 318 319 317 314 313 311 311 308 305 303 302 301 300 299 294 295 291 289 290 290 292 293 292 292 292 294

GFSSE_sfc_thetae_084.txt.gz
Theta_e
339 347 347 349 349 348 348 348 348 348 348 349 350 350 349 349 349 348 348 347 346 345 341 341 343 342 340 338 339 340 340 339 338 337 335 336 336 335 335 333 334 330 335
339 348 347 349 349 348 348 348 348 347 348 349 348 348 348 348 348 348 347 346 344 343 340 340 343 341 339 339 341 340 339 337 336 336 335 333 333 333 333 332 335 330 333
336 346 348 347 348 348 349 349 348 349 348 348 347 347 348 348 348 347 347 345 343 342 342 340 340 339 339 339 341 340 338 336 335 333 330 323 324 331 331 331 333 333 333
335 342 346 346 347 348 348 348 348 348 347 346 346 347 347 348 348 348 347 344 343 342 342 340 340 338 337 338 338 338 338 334 332 329 322 322 323 330 330 330 331 331 332
333 334 343 344 345 346 347 347 347 346 345 344 345 346 347 348 347 347 345 342 342 341 340 338 337 335 335 335 335 336 335 332 330 324 320 320 321 326 329 328 327 330 330
329 333 331 341 340 344 347 347 346 344 343 342 343 345 347 347 347 345 344 342 342 341 339 336 335 334 334 333 334 335 333 331 327 321 321 324 321 328 328 327 326 326 326
330 330 331 335 342 345 347 346 343 342 342 342 343 344 345 347 346 344 343 342 340 339 337 335 334 335 332 331 333 332 331 329 323 321 319 318 321 327 326 326 325 324 324
327 333 333 334 338 341 345 343 341 340 341 341 341 343 344 345 344 344 343 341 339 338 336 335 334 333 332 330 331 331 329 329 325 322 321 321 327 326 325 324 324 323 323
327 327 328 327 334 336 340 338 337 338 339 340 340 341 341 341 342 342 341 340 338 336 335 334 332 330 330 328 329 328 327 327 321 322 323 321 328 326 324 323 323 323 322
327 327 325 326 327 336 337 336 336 337 337 338 338 338 337 338 340 340 339 337 336 335 335 333 330 329 328 326 327 326 325 323 316 319 322 324 327 326 324 322 323 322 321
324 322 324 328 330 333 336 336 336 336 335 335 335 335 334 338 338 336 335 335 335 334 333 331 329 327 323 324 324 322 319 311 312 314 320 329 327 325 323 321 321 321 320
320 321 328 332 333 334 334 334 333 332 330 331 329 328 330 333 335 335 334 334 334 332 331 330 327 324 319 309 309 315 307 306 308 311 315 329 327 326 323 321 320 319 319
322 325 329 329 331 330 330 330 328 327 325 323 326 327 328 329 329 330 330 328 326 327 323 322 317 315 312 308 306 305 306 305 306 310 318 324 327 325 323 321 320 318 317
323 325 326 328 329 329 328 325 324 322 322 323 327 326 325 323 323 322 323 320 318 318 317 315 315 309 307 307 305 304 306 305 307 311 318 323 326 324 323 321 320 318 317
320 319 320 322 322 323 323 322 322 321 321 325 326 325 323 321 320 319 318 316 315 316 315 315 312 308 306 305 304 303 304 306 306 309 311 322 326 325 322 321 320 318 316
319 317 318 318 318 318 316 318 317 318 323 325 326 326 324 322 320 319 317 316 316 317 316 315 311 306 305 303 303 303 303 306 306 307 309 314 322 323 322 319 319 317 315
318 317 316 316 318 317 317 317 317 323 325 325 326 326 325 323 322 319 318 317 317 317 316 314 309 307 304 304 303 302 302 303 306 306 308 310 314 318 320 319 317 316 315
317 316 316 318 316 317 318 320 321 322 322 323 323 325 326 324 324 320 319 317 318 317 316 312 307 304 304 302 301 301 301 301 300 305 306 307 306 311 316 319 316 312 311
316 316 316 316 315 315 317 318 317 318 319 321 322 322 322 326 324 321 319 317 317 314 312 308 305 304 301 301 301 300 300 299 299 304 305 304 304 306 306 316 315 313 310
316 316 315 316 315 316 317 317 316 316 317 319 320 322 321 321 324 321 320 318 315 311 308 306 305 304 303 302 305 303 300 300 299 298 300 301 300 303 302 303 303 303 311
316 315 315 315 315 314 314 313 313 312 315 318 319 320 320 319 322 322 321 317 315 312 309 307 304 304 302 303 302 302 302 302 299 298 298 298 299 300 300 299 297 297 302
315 314 314 314 312 312 312 313 313 312 314 316 319 320 322 323 323 324 320 319 316 312 308 307 305 304 303 303 301 299 297 299 300 300 299 299 297 299 299 299 297 298 298
312 312 312 312 312 311 311 309 312 313 315 316 317 318 320 322 323 324 320 319 316 313 309 307 305 305 303 303 302 300 294 293 293 296 298 298 298 298 298 298 299 299 297
311 312 313 313 312 312 312 310 310 310 311 315 317 318 320 322 323 324 322 318 316 312 308 307 308 305 304 302 302 303 299 296 292 291 294 295 296 297 296 296 297 298 298
312 312 313 313 313 313 313 312 312 314 316 316 317 318 320 320 322 322 321 318 315 312 309 308 307 307 305 303 301 300 298 297 295 292 290 292 294 294 293 295 293 293 295
313 312 313 312 313 313 314 315 315 315 316 317 319 319 319 320 320 319 321 317 315 312 311 311 309 306 304 302 300 300 297 295 293 292 292 291 291 293 292 292 292 291 292

GFSSE_sfc_thetae_087.txt.gz
Theta_e
340 345 347 348 348 348 348 347 348 348 348 348 348 349 349 349 349 348 347 346 345 344 342 341 343 340 339 339 338 338 338 338 337 336 335 335 335 335 334 334 333 329 335
343 345 346 347 348 348 348 347 347 348 349 348 348 348 348 348 347 346 345 343 342 343 340 340 341 338 338 338 337 337 336 336 335 334 332 332 332 333 334 333 335 332 335
342 345 346 346 348 348 348 348 348 349 349 349 348 348 348 347 346 345 343 341 343 343 340 341 340 340 338 337 336 335 333 333 333 331 329 323 325 332 333 333 334 332 335
336 345 345 345 346 347 347 347 348 349 349 348 348 347 347 347 346 344 342 341 343 344 341 341 341 340 339 338 338 335 331 329 328 327 321 321 324 330 331 332 331 333 333
333 335 344 343 344 346 347 347 346 346 346 346 346 347 347 347 346 344 342 341 343 344 341 340 338 336 335 336 336 333 330 329 327 322 317 318 321 327 329 328 328 330 331
330 331 340 341 340 341 342 344 346 345 344 345 345 346 347 347 346 343 341 340 342 342 338 336 333 332 334 335 334 333 331 328 324 317 319 322 320 328 328 326 326 326 326
327 329 333 337 339 340 342 343 343 344 343 343 344 345 346 346 344 342 340 339 339 339 338 334 332 335 335 334 332 331 329 327 319 317 317 316 320 327 327 326 325 324 324
328 328 331 336 339 339 339 341 341 340 341 341 343 344 344 343 342 341 340 338 338 337 335 333 332 334 333 332 332 330 328 327 321 319 318 318 325 326 326 325 324 323 322
327 328 327 326 335 338 338 338 338 338 340 340 342 342 342 341 340 340 339 338 337 335 333 332 330 331 332 332 330 329 327 326 319 319 320 318 326 325 325 324 323 322 321
327 327 325 327 330 334 336 336 335 336 338 339 340 339 338 339 338 338 336 335 335 334 332 331 329 330 331 330 328 327 326 324 318 319 319 321 325 324 324 324 323 321 321
324 325 325 323 324 331 333 334 335 336 337 338 338 337 336 338 337 333 333 333 334 333 331 329 327 328 328 327 326 324 320 315 316 319 320 327 326 324 323 322 322 321 320
320 320 325 329 328 324 332 332 332 332 335 336 337 337 337 337 334 332 332 333 333 331 330 327 324 320 315 313 316 314 308 310 313 316 321 327 325 324 323 321 320 320 319
318 322 328 326 328 327 325 329 329 331 331 331 333 334 335 335 333 330 328 326 326 325 320 317 315 308 306 306 304 303 304 306 307 311 320 326 325 323 323 321 319 318 318
321 324 325 324 327 327 330 329 328 327 326 328 329 331 332 331 329 328 324 321 320 317 314 313 310 306 305 305 306 304 304 305 307 310 317 326 326 323 322 321 319 318 316
321 321 322 325 326 326 325 324 323 323 325 327 327 328 329 327 325 324 318 316 316 314 314 309 307 306 304 303 304 304 304 305 306 309 312 324 325 324 321 321 320 318 316
318 318 319 319 325 325 324 322 321 321 324 325 325 324 325 325 322 321 315 314 314 313 313 310 306 304 303 303 302 304 305 304 305 308 312 318 323 324 323 321 320 318 316
318 318 317 317 319 320 320 318 318 322 325 324 324 323 322 322 321 319 315 315 314 314 313 309 305 303 302 302 301 302 304 304 305 306 309 312 314 318 319 320 317 315 313
317 315 317 318 317 318 316 318 322 323 323 324 324 324 323 322 319 318 316 314 315 314 313 309 305 303 301 300 300 300 300 302 303 304 307 308 308 311 317 319 317 313 312
316 316 315 316 317 317 318 318 319 319 321 322 323 323 323 324 321 319 317 315 315 314 312 309 304 303 300 299 299 298 298 297 300 306 305 305 304 307 307 317 316 314 312
317 316 316 316 316 317 316 316 316 317 318 320 321 322 323 324 323 319 316 315 314 312 309 306 303 302 301 300 303 300 298 298 297 299 302 304 302 304 303 306 306 306 312
315 315 315 314 316 316 315 314 314 314 316 317 319 321 320 322 323 319 317 315 313 312 310 305 303 302 301 301 300 299 300 300 298 297 298 298 299 301 300 300 300 297 302
314 314 314 315 315 315 314 313 313 314 315 316 319 319 321 319 321 321 318 316 313 310 307 305 304 302 302 302 299 298 296 298 299 299 296 297 296 298 299 299 297 297 297
313 313 314 314 313 314 314 313 312 313 314 314 317 317 318 320 320 322 321 319 316 313 309 306 304 304 302 301 301 300 294 294 294 295 297 297 297 296 297 297 298 297 297
313 312 312 312 312 310 310 310 310 309 309 312 312 317 315 319 319 321 321 319 315 312 308 307 306 304 303 301 301 301 298 296 293 292 294 294 295 297 296 296 296 297 297
312 311 311 311 311 311 310 309 308 308 308 312 314 315 315 318 321 321 321 318 316 313 311 308 306 306 307 304 302 301 298 295 293 291 289 292 292 294 293 295 295 294 295
311 310 310 311 311 311 310 310 308 309 311 312 314 314 315 316 318 319 320 317 317 314 310 309 309 309 308 306 303 302 300 298 295 293 291 292 291 293 292 292 291 291 292

GFSSE_sfc_thetae_090.txt.gz
Theta_e
334 343 347 349 350 348 347 347 348 349 350 350 350 350 349 349 349 348 347 346 346 346 344 342 343 339 339 339 338 337 337 338 337 336 334 335 335 335 336 334 334 328 334
338 344 345 348 348 348 348 347 348 349 350 350 349 349 349 348 348 347 345 344 344 344 341 340 339 338 338 337 336 336 334 335 335 335 334 334 334 335 335 336 338 335 336
343 344 345 346 348 348 348 348 348 349 350 350 349 349 348 348 347 345 343 343 343 343 340 339 339 338 337 336 334 333 332 331 333 331 330 324 326 334 333 334 336 336 336
344 344 344 345 347 348 348 348 348 349 349 349 349 348 347 347 345 343 344 342 343 343 342 340 340 338 336 335 334 332 330 329 328 326 321 323 326 332 332 332 334 333 334
337 343 344 344 345 347 347 347 347 347 347 347 347 347 346 345 344 343 343 342 343 344 342 341 340 337 337 335 333 331 329 328 327 322 318 320 323 327 330 331 330 329 329
331 335 342 342 344 346 346 347 346 346 345 345 345 346 346 345 343 343 342 342 343 343 343 339 337 337 335 333 332 331 329 327 323 317 319 324 322 328 328 327 326 326 325
328 332 340 340 343 345 345 345 344 345 344 344 345 345 344 344 342 342 341 341 340 340 338 335 335 338 334 332 332 330 328 325 318 317 316 317 322 327 327 326 325 324 323
326 328 332 340 338 341 343 342 342 342 343 343 343 344 344 342 341 340 340 339 338 336 336 337 337 335 333 332 330 328 327 325 320 318 317 319 326 327 326 325 323 323 322
326 325 329 332 337 338 338 338 338 339 340 341 342 342 341 340 339 338 338 338 335 334 335 336 335 332 332 331 330 328 326 324 318 318 318 318 326 326 325 324 323 322 321
327 325 324 326 331 333 333 336 335 336 336 338 339 339 338 338 337 337 336 335 334 332 334 335 333 332 331 330 329 327 326 324 318 318 318 321 326 326 325 323 322 321 320
325 326 324 324 326 330 334 335 335 335 335 335 336 337 335 336 333 332 332 332 332 331 332 333 333 331 329 328 328 326 322 318 319 319 319 326 325 325 324 323 321 320 320
320 321 323 325 325 326 333 334 333 333 330 333 337 337 337 334 329 329 331 331 331 329 330 332 330 328 323 319 321 319 314 316 318 319 320 326 325 324 323 322 321 320 319
318 323 327 328 328 326 326 332 331 331 327 328 333 335 335 333 328 327 327 325 323 323 318 319 315 313 312 309 308 308 309 311 313 317 323 326 323 323 322 321 320 319 318
318 322 325 324 326 327 327 331 329 326 325 326 331 333 334 331 325 324 322 320 319 316 312 309 306 307 305 305 305 304 305 307 309 313 322 324 324 323 322 321 319 318 318
321 321 323 325 325 326 327 328 326 324 324 327 329 332 333 330 325 322 318 316 316 313 311 306 305 305 304 305 304 304 305 307 310 312 316 323 323 323 322 321 320 318 317
320 319 321 323 324 324 325 325 325 325 325 328 329 329 331 328 324 320 317 316 315 314 309 307 305 303 302 304 303 304 305 305 308 313 316 321 323 324 323 321 320 318 316
319 319 319 320 322 323 322 322 323 324 326 327 328 325 324 324 322 318 316 315 315 314 309 306 303 302 301 302 303 305 304 304 307 311 315 316 318 321 322 323 320 317 316
317 317 319 321 319 320 320 320 321 324 325 324 324 323 323 322 321 316 315 315 315 313 309 305 303 301 301 301 300 302 304 304 305 308 311 311 310 312 318 320 319 315 314
316 316 316 318 317 317 318 319 321 323 323 323 321 322 322 321 319 317 315 315 316 313 309 306 303 302 300 300 300 300 300 301 303 306 306 308 307 309 310 318 317 316 314
316 316 316 317 317 317 318 319 319 319 321 322 321 321 322 321 320 318 315 315 315 312 309 306 303 302 301 300 301 300 298 298 299 303 304 305 304 306 307 309 310 309 314
315 315 315 316 316 317 317 317 316 316 317 317 321 321 322 322 320 318 316 315 313 313 310 306 303 303 301 301 300 300 300 299 298 297 301 302 302 303 303 303 304 303 306
314 315 314 315 315 315 317 317 316 316 315 317 319 320 321 323 322 319 317 315 313 311 308 306 304 302 302 302 299 298 297 299 300 300 297 299 299 299 301 301 301 300 299
313 313 314 314 315 315 315 314 314 314 314 314 316 317 318 319 321 321 318 316 314 312 310 306 305 304 301 301 301 300 294 295 296 297 298 297 297 297 298 299 299 299 298
313 314 315 314 315 315 314 312 313 313 310 311 313 316 316 319 318 320 319 317 315 312 309 308 307 306 304 301 301 302 299 298 295 294 295 296 298 298 297 297 298 298 298
314 313 314 314 313 313 312 312 309 310 311 311 313 314 314 316 318 318 319 317 315 315 313 310 308 306 306 304 302 301 300 297 295 294 292 294 294 295 296 297 297 297 298
313 313 311 312 311 310 309 308 308 307 307 308 309 311 311 312 314 316 319 318 319 316 313 311 310 308 307 306 306 304 301 299 297 296 294 293 293 296 295 294 295 295 295

GFSSE_sfc_thetae_093.txt.gz
Theta_e
341 345 348 350 350 350 350 349 348 349 349 349 350 349 349 350 349 349 349 348 348 348 345 344 345 343 340 340 339 339 339 338 338 338 338 337 336 336 335 336 335 331 336
340 345 346 348 349 349 350 349 349 349 350 350 350 349 349 349 349 349 348 347 347 346 343 341 342 339 339 338 336 336 336 337 336 337 337 336 336 339 338 339 338 335 337
343 344 347 347 348 348 349 350 350 351 351 350 350 349 349 349 348 347 346 345 345 344 341 340 339 338 338 336 334 333 333 334 335 334 335 332 330 335 337 338 338 337 335
346 346 344 346 347 348 348 349 350 351 350 350 349 349 348 347 346 345 344 343 343 343 340 339 338 337 335 334 333 333 331 331 330 332 329 328 331 335 336 335 334 334 333
346 347 345 345 345 347 347 348 349 349 348 348 348 348 347 346 345 344 343 342 342 343 340 339 337 335 334 334 332 331 330 329 329 328 327 328 331 332 333 331 330 328 328
340 346 343 342 344 347 347 348 348 347 346 346 346 347 346 345 345 344 342 342 343 343 343 339 336 335 334 332 332 331 329 328 328 326 326 327 327 329 329 328 327 326 325
337 335 342 341 343 346 347 347 346 346 345 345 345 344 343 344 344 342 342 342 342 343 342 339 339 335 333 332 331 329 328 327 325 325 326 326 327 328 327 326 325 325 324
335 333 333 341 342 341 345 344 343 343 343 343 343 342 342 342 341 341 341 341 341 339 338 339 335 334 333 332 329 328 326 325 325 325 325 325 327 326 326 325 324 323 323
333 332 331 334 335 337 337 339 340 341 341 341 341 340 339 339 339 340 340 339 337 337 337 338 334 333 332 330 329 327 325 326 324 325 324 325 326 326 326 324 323 323 322
329 332 331 334 333 336 337 336 338 339 339 340 340 338 337 337 338 338 337 336 336 338 338 336 333 332 331 329 328 327 326 326 324 324 325 325 326 326 325 324 323 322 321
328 328 330 330 335 337 336 338 336 339 339 339 339 336 335 340 339 337 334 334 336 336 335 334 332 331 329 328 328 326 325 324 324 324 325 327 326 326 325 323 322 321 320
326 326 328 331 330 329 334 336 335 340 344 342 342 339 338 339 339 334 332 332 333 334 333 332 331 330 327 327 327 325 324 326 324 324 324 327 326 325 324 322 321 320 320
324 326 327 329 331 330 330 332 332 330 335 336 342 337 337 336 334 334 332 328 331 333 332 330 329 326 326 325 324 325 325 325 325 324 324 326 325 324 323 322 320 320 319
321 325 328 328 328 331 329 332 330 328 329 336 337 338 332 331 332 332 328 326 326 329 330 328 324 324 322 323 323 324 325 324 324 324 324 325 325 323 323 322 321 319 318
322 324 327 327 328 328 327 327 329 327 328 331 332 335 332 330 329 329 327 324 322 322 323 323 322 319 318 317 317 319 322 324 325 324 323 323 325 324 323 322 320 319 318
322 323 324 325 326 325 326 327 328 327 328 329 331 330 333 332 328 327 325 322 320 320 321 320 318 316 313 313 312 313 315 319 323 325 323 323 323 324 323 321 320 319 318
321 321 321 324 325 323 324 327 326 325 325 328 330 331 332 330 327 326 323 322 320 317 316 316 314 313 312 311 312 313 313 316 320 324 324 323 321 322 323 323 320 319 317
320 320 321 322 321 322 323 324 324 325 326 328 329 329 329 329 327 325 323 322 321 317 315 313 312 311 311 311 311 312 312 313 318 323 324 323 322 320 321 322 322 318 318
319 318 318 321 319 319 320 324 324 325 325 327 327 325 326 327 326 323 323 321 321 317 314 312 311 312 310 311 311 311 312 311 313 318 321 320 321 319 317 319 318 318 318
318 317 318 318 319 319 321 321 323 323 323 324 325 324 325 326 325 323 322 322 321 317 314 312 312 311 311 310 307 307 309 309 309 311 316 318 316 316 316 315 315 312 316
317 317 317 316 318 318 318 318 319 319 321 321 322 323 324 325 324 323 322 322 321 318 316 314 312 311 309 310 307 306 306 307 307 308 312 312 312 313 314 314 314 311 312
315 317 317 316 317 318 319 319 319 319 320 321 322 323 323 324 323 321 321 321 321 319 317 314 313 310 310 311 307 307 303 306 307 307 307 310 312 311 310 311 312 311 310
315 316 316 316 316 318 319 318 316 316 316 320 321 321 324 324 321 322 322 321 321 320 318 315 313 312 310 309 311 310 304 303 306 308 308 306 309 310 310 310 310 310 310
316 316 316 317 316 316 317 317 317 315 315 317 320 320 320 323 322 322 321 321 321 321 319 318 317 315 314 309 309 309 309 309 305 304 306 308 307 307 309 308 308 309 309
317 316 316 316 316 316 317 317 316 314 316 314 317 320 318 319 319 320 322 321 323 321 322 320 317 315 316 315 311 309 307 307 306 306 306 304 304 301 304 308 308 308 306
316 316 316 315 314 315 314 316 317 315 315 313 314 315 317 318 320 320 320 322 324 324 322 320 320 317 316 315 314 311 307 306 304 302 303 298 300 304 305 300 301 302 303

GFSSE_sfc_thetae_096.txt.gz
Theta_e
344 348 347 350 351 351 349 349 348 349 350 350 350 349 350 350 350 350 349 348 347 348 345 343 345 343 341 340 339 340 340 340 339 340 338 337 337 335 336 340 338 336 338
346 346 346 349 351 351 350 349 349 349 350 350 349 349 349 350 350 348 348 348 347 347 343 342 343 340 340 339 337 339 339 338 338 338 340 341 339 338 337 340 337 334 335
345 346 347 348 350 351 351 350 350 351 350 350 349 350 350 350 350 349 348 346 346 345 341 341 340 339 338 337 336 335 335 336 337 338 338 337 336 338 338 338 338 336 335
346 347 347 347 348 350 350 349 350 351 350 349 350 350 349 350 349 348 346 344 344 344 340 339 339 338 336 335 335 335 333 334 335 337 332 333 334 337 337 335 334 333 332
343 348 346 345 346 349 349 349 350 349 349 348 348 349 349 348 347 346 344 343 342 343 340 339 337 335 334 335 334 333 331 332 333 331 331 333 331 333 333 330 330 330 330
342 347 343 343 345 347 349 349 349 348 347 347 347 348 348 347 346 344 342 342 342 342 339 337 336 334 334 333 332 332 330 331 331 328 328 331 330 330 330 329 327 327 327
342 345 335 338 342 346 349 349 348 347 346 345 346 345 345 345 344 342 341 341 341 341 339 336 334 333 333 332 331 330 329 329 327 327 327 327 329 328 328 327 326 326 325
338 339 334 333 334 339 346 346 345 345 344 344 344 343 343 343 342 342 341 341 341 340 338 336 334 333 332 331 329 328 328 328 327 327 327 327 328 327 327 326 325 324 324
337 336 332 331 332 333 339 342 341 342 342 342 341 341 341 340 340 341 340 341 340 339 339 335 334 332 331 330 328 327 326 330 327 326 325 326 326 326 326 325 324 324 323
335 337 334 330 329 327 338 335 334 338 339 339 339 339 338 338 339 339 339 338 338 339 337 335 333 331 330 329 328 326 326 327 327 327 326 326 327 327 326 325 324 322 322
329 332 334 328 327 328 337 336 333 334 338 337 338 337 335 341 341 340 337 336 338 337 335 334 332 330 329 328 327 326 326 325 327 326 326 327 327 327 325 324 322 322 321
331 328 333 332 332 332 335 338 335 334 339 342 339 342 338 341 340 337 336 336 337 336 333 332 331 329 327 326 326 326 326 326 326 326 326 327 326 326 325 323 322 321 320
331 333 330 334 334 336 338 341 337 334 337 339 338 337 338 341 340 337 334 335 338 334 333 330 329 327 328 327 325 326 327 326 326 325 325 327 326 325 324 323 322 320 319
330 330 332 332 335 336 336 335 335 333 337 335 338 336 341 339 338 334 331 333 336 334 332 331 329 330 329 327 326 326 326 326 325 325 325 326 326 324 324 323 321 320 319
328 327 330 334 334 333 335 336 333 337 332 336 335 336 338 335 331 332 332 333 333 333 332 331 330 328 327 325 325 325 325 325 326 325 325 324 325 325 323 323 321 320 319
324 326 330 331 332 332 332 332 330 330 332 335 336 334 334 333 330 329 330 329 332 333 332 331 329 325 323 322 323 323 323 324 325 326 325 324 323 325 323 322 321 320 319
325 325 327 327 330 329 329 329 330 329 329 332 332 333 330 329 328 328 329 327 327 330 330 329 326 323 319 318 317 318 320 323 324 325 324 324 324 322 323 323 321 319 318
324 322 324 325 327 328 324 325 327 328 329 330 332 332 329 328 327 330 327 326 326 327 326 324 322 319 318 317 316 317 317 318 322 324 324 323 323 322 322 323 322 320 318
324 322 322 326 324 321 322 326 326 326 327 328 330 330 328 327 327 328 327 326 326 323 322 321 320 320 318 317 316 316 317 316 319 321 323 324 323 321 321 322 322 321 321
323 321 322 325 323 322 323 324 324 326 327 328 327 328 328 326 327 327 326 326 324 322 321 321 320 321 320 318 314 314 316 316 316 319 321 322 321 320 319 320 319 316 318
322 321 319 320 322 322 321 320 321 320 323 324 325 326 326 325 326 328 325 325 325 322 322 321 320 319 318 317 313 313 313 313 314 314 316 319 319 319 317 317 316 314 314
320 321 319 319 320 321 321 320 321 322 322 323 324 324 325 326 327 326 325 325 325 323 322 321 320 317 317 315 311 311 306 309 311 312 314 315 317 316 314 315 316 316 315
318 320 320 320 319 320 321 319 318 319 321 321 322 322 323 325 327 327 325 325 326 325 322 322 319 319 315 313 315 312 309 308 312 313 312 313 315 315 315 315 315 316 315
318 323 323 321 319 320 321 320 318 317 315 319 322 323 324 324 323 325 326 326 326 325 324 322 320 320 319 314 314 314 317 316 310 308 313 313 313 312 316 315 314 314 314
319 320 321 322 319 319 321 320 318 317 317 320 321 324 324 323 324 322 323 322 324 325 324 325 322 322 321 319 316 315 314 314 314 309 309 310 312 313 314 315 313 310 313
321 321 320 320 318 318 321 322 319 319 316 317 318 319 323 323 326 324 323 323 324 325 325 326 327 325 323 322 322 320 317 315 313 312 306 306 309 311 310 306 309 311 312

GFSSE_sfc_thetae_099.txt.gz
Theta_e
342 350 350 352 352 351 349 349 349 349 350 350 350 351 350 351 350 349 348 347 347 347 344 343 344 343 342 341 340 342 341 340 340 340 340 339 338 339 340 342 340 337 339
344 351 347 350 351 351 350 349 349 349 350 350 350 350 350 349 349 349 348 347 347 346 343 342 341 341 340 339 341 340 341 340 339 339 340 340 340 338 338 339 338 335 337
345 348 348 349 350 352 351 350 350 351 351 351 350 350 350 349 349 348 348 346 346 345 342 341 341 340 339 338 339 340 339 339 340 340 340 334 335 338 338 337 337 335 335
346 347 349 347 349 351 350 350 350 351 351 349 350 350 350 349 349 349 347 345 344 345 341 341 340 339 337 337 337 337 338 338 338 338 333 334 335 337 336 334 333 332 332
342 346 347 345 347 350 350 349 349 349 349 348 348 350 350 349 349 347 345 343 344 343 340 339 338 336 336 336 335 335 333 333 334 334 332 332 331 332 333 332 330 330 332
339 343 343 342 345 348 349 349 349 348 347 347 347 349 349 349 347 345 343 342 342 342 339 337 335 334 335 334 333 333 332 332 332 330 330 331 330 332 331 329 328 328 330
338 344 349 336 343 346 347 347 348 347 346 346 347 347 347 346 345 343 341 341 341 340 339 335 334 333 333 333 332 331 330 329 327 328 327 328 328 329 329 328 327 327 327
339 344 344 336 339 336 334 336 344 345 344 344 345 345 345 344 342 341 341 340 339 338 337 335 333 332 331 331 330 328 328 329 327 326 326 326 329 328 328 327 326 326 326
341 341 341 339 336 332 332 330 335 342 342 343 343 342 342 340 339 340 340 339 338 337 335 334 333 332 331 329 328 328 326 329 326 325 325 325 328 327 327 326 325 325 324
338 338 339 334 334 334 333 329 328 339 340 340 340 339 338 338 338 339 339 339 338 336 335 334 332 331 330 328 327 327 326 328 325 325 324 325 327 327 327 325 325 324 323
335 336 339 335 332 330 332 332 334 338 338 338 339 337 335 341 339 340 338 337 338 334 334 333 332 330 328 327 326 326 326 326 326 325 324 328 327 327 326 324 323 322 322
334 333 337 336 331 329 334 329 333 334 336 341 343 342 340 341 339 337 337 336 336 333 333 332 330 328 325 322 323 325 326 327 326 325 325 328 327 326 325 323 322 322 321
332 334 334 335 333 331 333 336 339 332 329 337 341 342 338 340 340 341 339 338 336 332 328 328 327 324 325 323 324 328 326 326 326 325 325 327 326 326 325 323 322 321 320
330 331 334 336 336 337 336 339 340 335 328 336 342 341 340 339 338 340 337 335 335 332 329 328 325 329 328 326 326 327 327 325 325 325 325 326 327 325 325 323 322 321 320
328 330 333 335 337 337 336 339 340 337 338 335 336 341 338 336 336 334 335 335 334 334 330 330 327 329 328 326 326 326 325 326 326 324 324 325 326 325 324 323 322 321 320
329 331 332 333 334 335 337 338 338 333 334 334 334 337 341 339 336 330 334 335 334 334 332 331 330 328 327 325 325 325 324 325 326 326 324 323 324 325 325 323 321 321 320
329 330 330 331 333 333 333 335 338 337 337 335 331 334 338 334 334 331 331 334 332 334 336 333 331 328 324 323 322 323 323 325 325 325 324 324 323 323 323 325 323 321 319
329 328 329 328 330 331 332 334 334 332 335 332 332 331 331 330 333 332 329 327 333 332 333 330 328 323 321 319 318 319 320 323 324 325 324 324 322 321 321 323 323 322 319
328 326 324 325 328 330 328 329 332 332 331 332 331 331 330 328 326 325 325 326 333 332 331 329 326 324 320 319 317 318 319 319 322 323 324 324 323 322 321 321 322 321 321
327 326 326 324 326 325 325 328 326 326 329 329 331 329 328 326 326 324 324 326 329 328 328 326 325 323 322 320 317 316 318 319 320 321 322 322 322 323 322 323 321 319 320
324 324 322 324 324 325 322 323 323 323 325 327 329 328 326 325 325 325 322 327 327 324 323 324 325 325 321 323 317 316 317 317 318 318 321 322 321 321 322 320 322 319 318
322 324 320 322 323 323 323 322 322 322 325 326 327 326 325 324 324 324 324 326 325 323 324 325 326 321 321 321 315 314 309 311 314 315 316 319 323 320 319 319 320 320 317
321 322 323 322 323 322 321 322 321 321 322 322 323 323 323 322 322 322 324 325 325 325 323 325 326 323 318 318 322 315 309 308 312 314 315 315 317 319 319 318 318 319 319
323 325 325 323 322 321 322 320 321 318 317 319 321 322 323 323 322 323 324 325 326 327 324 324 324 324 323 316 316 317 320 317 313 310 313 314 314 316 319 319 317 318 319
325 323 323 323 322 323 322 323 319 318 319 320 321 321 322 323 323 324 325 327 328 326 328 327 326 324 323 322 317 316 316 316 318 312 310 311 315 316 316 319 317 319 318
324 322 321 320 320 321 321 322 320 318 318 320 319 318 319 321 322 323 323 326 327 328 327 326 326 324 324 325 323 322 317 315 313 313 311 312 310 313 313 312 313 318 319